STARLINK-1171, 45062

Orbit data source: Space-Track

STARLINK-1171, 45062 is a payload satellite owned by SpaceX/Seattle (US) in LEO that was launched on Wed, 29 Jan 2020 UTC via an FALCON 9 launch vehicle from the Air Force Eastern Test Range (AFETR). Payload-class satellites include a variety of spacecraft equipped with specific instruments for various scientific and technological missions. These include communications satellites like Starlink; space stations such as the ISS; scientific satellites like the Hubble; Earth observation satellites from companies like Planet Labs, Umbra, and HawkEye 360; GPS; miniature CubeSats for education and research; and military/defense satellites.

Loading next visibility...
Identifier
45062, 2020-006U
Orbit
LEO
Last TLE update
8 hours ago
Origin
Manufacturer
SpaceX/Seattle
Mission
Operational Commercial Communications
Bus & Motor
STARLINK, Unknown motor
Mass
260 kg wet, ~248 kg dry
Launch date (UTC)
2020-01-29 (5 years ago)
Launch vehicle
FALCON 9
Launch site
Air Force Eastern Test Range (AFETR)
Object type
Payload
Rocket body
Debris
Shape & HBR
Box + 1 Pan, 8.86 m
Radar Cross Section
13.562 m², Large (>1 m²)

Expand to show TLE details & history

TLE from 8 hours ago
0 STARLINK-1171
1 45062U 20006U   25186.60879568  .00001938  00000-0  14895-3 0  9997
2 45062  53.0570 315.8071 0001349  91.2888 268.8256 15.06402058299229
Epoch: 2025-07-05T14:36Z
TLE epoch observation values (Epoch: 2025-07-05T14:36:39.946Z)
Latitude
-0°
Longitude
172.79627°
Altitude
548.104 km
Speed
7.589 km/s
True Right ascension
21h 03m 13s
True Declination
0° 00' 00"
Sunlit
Object was in full shadow at epoch
Visualization orbit readout
Latitude
53.14458°
Longitude
-102.65725°
Altitude
552.807 km
Speed
7.592 km/s
Apparent Right ascension
00h 37m 36s
Apparent Declination
10° 18' 48"
Sunlit
Object is in daylight
Visualization observer readout
Local Sidereal Time
10:53:52
Azimuth
328.606° NNW
Elevation
-34.314°
Doppler factor
1
Orbital elements
Apogee altitude
548.41 km
Perigee altitude
546.541 km
Semi-major axis
6,925.613 km
Eccentricity
0.00013
Inclination
53.057°
RAAN
315.8071°
Arg. of periapsis
91.2888°
True anomaly
Unknown
Mean anomaly
268.8256°
Eccentric anomaly
Unknown
Mean motion
3.76579 °/min
Orbital period
95.6 mins
BSTAR
0.00014895
Loading maneuver chart data...
Loading SW <> Apogee altitude chart data...

STARLINK-1171 Visibility forecast

Observer location: undefined°, undefined°

Span
Click to sort rows by Start time (UTC) header in descending order
Start Az.
Max El. time (UTC)
Max El. Az.
Max El.
End time (UTC)
End Az.
6 mins2025-07-06 11:30:35.707Z236.738° WSW2025-07-06 11:33:35.707Z20.657° NNE42.512°2025-07-06 11:36:35.707Z47.195° ENE
4 mins2025-07-06 13:11:35.707Z310.166° NW2025-07-06 13:13:35.707Z348.208° N18.324°2025-07-06 13:15:35.707Z21.046° NNE
5 mins2025-07-06 16:32:35.707Z341.852° N2025-07-06 16:34:35.707Z19.02° NNE20.958°2025-07-06 16:37:35.707Z71.999° E
6 mins2025-07-06 18:12:35.707Z304.79° NW2025-07-06 18:14:35.707Z241.625° WSW44.427°2025-07-06 18:18:35.707Z135.526° SSE
|